Location: Cicognara
(44.9500°N, 10.4667°E)
Time: 07:30:57
(UTC+00:00)

Lacrosse 4 Rocket - Pass Details

Date: 29 October 2021
Orbit: 537 x 619 km, 68.0° (Epoch: 07 December)

Event Time Altitude Azimuth Distance (km) Brightness Sun altitude
Rises 17:49:56 0° 312° (NW) 2,837 5.7 -18.1°
Reaches altitude 10° 17:52:57 10° 290° (WNW) 1,946 5.2 -18.6°
Maximum altitude 17:55:30 15° 254° (WSW) 1,631 4.7 -19.1°
Drops below altitude 10° 17:58:04 10° 219° (SW) 1,959 4.6 -19.5°
Sets 18:01:08 0° 196° (SSW) 2,868 5.2 -20.1°
